When you browse on this site, cookies collect data to enhance your experience and personalize the content and advertising you see.
Visit our Privacy Policy to learn more. By continuing to use the site, you agree to this use of cookies and data.
  • In Czech Republic
  • List of Countries
  • For 7 days
  • Water Temperature
  • Weather Map
  • Weather Widgets
  • user-avatar
    Login

    Hourly Weather Perth

    Today, 22 August, Thursday

    Time Temperature Precipitation Wind Pressure Humidity
    00:00 +14°C° 0 mm 3 mps 763 mmHg 52%
    01:00 +14°C° 0 mm 4 mps 763 mmHg 47%
    02:00 +13°C° 0 mm 4 mps 762 mmHg 40%
    03:00 +13°C° 0 mm 4 mps 762 mmHg 37%
    04:00 +13°C° 0 mm 4 mps 762 mmHg 35%
    05:00 +13°C° 0 mm 4 mps 762 mmHg 32%
    06:00 +13°C° 0 mm 4 mps 762 mmHg 35%
    07:00 +13°C° 0 mm 4 mps 762 mmHg 37%
    08:00 +14°C° 0 mm 5 mps 761 mmHg 38%
    09:00 +16°C° 0 mm 5 mps 761 mmHg 39%
    10:00 +19°C° 0 mm 5 mps 761 mmHg 39%
    11:00 +21°C° 0 mm 5 mps 761 mmHg 39%
    12:00 +21°C° 0 mm 5 mps 760 mmHg 40%
    13:00 +22°C° 0 mm 6 mps 760 mmHg 41%
    14:00 +22°C° 0 mm 6 mps 759 mmHg 42%
    15:00 +21°C° 0 mm 6 mps 759 mmHg 44%
    16:00 +21°C° 0 mm 6 mps 759 mmHg 47%
    17:00 +20°C° 0 mm 6 mps 759 mmHg 50%
    18:00 +19°C° 1.3 mm 6 mps 759 mmHg 62%
    19:00 +17°C° 1.3 mm 6 mps 759 mmHg 74%
    20:00 +17°C° 1.3 mm 6 mps 759 mmHg 86%
    21:00 +16°C° 0.5 mm 6 mps 759 mmHg 84%
    22:00 +15°C° 0.5 mm 6 mps 760 mmHg 83%
    23:00 +15°C° 0.5 mm 6 mps 760 mmHg 81%

    Tomorrow, 23 August, Friday

    Time Temperature Precipitation Wind Pressure Humidity
    00:00 +14°C° 1.1 mm 6 mps 760 mmHg 81%
    01:00 +14°C° 1.1 mm 6 mps 760 mmHg 81%
    02:00 +13°C° 1.1 mm 5 mps 760 mmHg 81%
    03:00 +13°C° 0.2 mm 5 mps 761 mmHg 79%
    04:00 +13°C° 0.2 mm 5 mps 761 mmHg 77%
    05:00 +12°C° 0.2 mm 5 mps 762 mmHg 75%
    06:00 +12°C° 0.1 mm 5 mps 762 mmHg 74%
    07:00 +13°C° 0.1 mm 5 mps 763 mmHg 74%
    08:00 +13°C° 0.1 mm 4 mps 763 mmHg 73%
    09:00 +13°C° 0.2 mm 5 mps 763 mmHg 71%
    10:00 +13°C° 0.2 mm 6 mps 764 mmHg 69%
    11:00 +12°C° 0.2 mm 7 mps 764 mmHg 66%
    12:00 +14°C° 0 mm 6 mps 764 mmHg 61%
    13:00 +14°C° 0 mm 6 mps 764 mmHg 56%
    14:00 +14°C° 0 mm 5 mps 764 mmHg 51%
    15:00 +14°C° 0 mm 5 mps 764 mmHg 54%
    16:00 +13°C° 0 mm 5 mps 765 mmHg 56%
    17:00 +13°C° 0 mm 4 mps 766 mmHg 59%
    18:00 +12°C° 0 mm 4 mps 766 mmHg 61%
    19:00 +12°C° 0 mm 4 mps 766 mmHg 63%
    20:00 +11°C° 0 mm 4 mps 767 mmHg 64%
    21:00 +10°C° 0 mm 3 mps 767 mmHg 66%
    22:00 +10°C° 0 mm 3 mps 768 mmHg 68%
    23:00 +9°C° 0 mm 2 mps 768 mmHg 70%

    Day after tomorrow, 24 August, Saturday

    Time Temperature Precipitation Wind Pressure Humidity
    00:00 +9°C° 0 mm 3 mps 768 mmHg 71%
    01:00 +8°C° 0 mm 3 mps 768 mmHg 72%
    02:00 +8°C° 0 mm 3 mps 768 mmHg 72%
    03:00 +8°C° 0 mm 3 mps 768 mmHg 74%
    04:00 +7°C° 0 mm 3 mps 768 mmHg 75%
    05:00 +7°C° 0 mm 3 mps 769 mmHg 76%
    06:00 +7°C° 0 mm 3 mps 769 mmHg 76%
    07:00 +8°C° 0 mm 3 mps 769 mmHg 75%
    08:00 +8°C° 0 mm 3 mps 769 mmHg 75%
    09:00 +10°C° 0 mm 3 mps 769 mmHg 66%
    10:00 +13°C° 0 mm 2 mps 769 mmHg 58%
    11:00 +15°C° 0 mm 2 mps 769 mmHg 49%
    12:00 +15°C° 0 mm 2 mps 768 mmHg 48%
    13:00 +16°C° 0 mm 2 mps 767 mmHg 47%
    14:00 +17°C° 0 mm 2 mps 766 mmHg 46%
    15:00 +16°C° 0 mm 2 mps 766 mmHg 50%
    16:00 +16°C° 0 mm 2 mps 767 mmHg 55%
    17:00 +15°C° 0 mm 2 mps 767 mmHg 59%
    18:00 +14°C° 0 mm 2 mps 767 mmHg 63%
    19:00 +13°C° 0 mm 2 mps 767 mmHg 67%
    20:00 +12°C° 0 mm 2 mps 767 mmHg 70%
    21:00 +11°C° 0 mm 3 mps 768 mmHg 71%
    22:00 +11°C° 0 mm 3 mps 768 mmHg 71%
    23:00 +10°C° 0 mm 3 mps 768 mmHg 72%

    25 August, Sunday

    Time Temperature Precipitation Wind Pressure Humidity
    00:00 +10°C° 0 mm 3 mps 767 mmHg 71%
    01:00 +10°C° 0 mm 3 mps 767 mmHg 71%
    02:00 +10°C° 0 mm 3 mps 766 mmHg 70%
    03:00 +9°C° 0 mm 3 mps 766 mmHg 72%
    04:00 +9°C° 0 mm 3 mps 766 mmHg 74%
    05:00 +9°C° 0 mm 3 mps 766 mmHg 75%
    06:00 +9°C° 0 mm 2 mps 767 mmHg 75%
    07:00 +9°C° 0 mm 2 mps 767 mmHg 75%
    08:00 +9°C° 0 mm 2 mps 767 mmHg 74%
    09:00 +12°C° 0 mm 2 mps 767 mmHg 66%
    10:00 +14°C° 0 mm 1 mps 767 mmHg 59%
    11:00 +16°C° 0 mm 1 mps 767 mmHg 51%
    12:00 +18°C° 0 mm 1 mps 766 mmHg 50%
    13:00 +18°C° 0 mm 2 mps 765 mmHg 49%
    14:00 +19°C° 0 mm 2 mps 765 mmHg 48%
    15:00 +18°C° 0 mm 2 mps 765 mmHg 53%
    16:00 +17°C° 0 mm 3 mps 765 mmHg 59%
    17:00 +17°C° 0 mm 3 mps 765 mmHg 65%
    18:00 +16°C° 0 mm 3 mps 766 mmHg 69%
    19:00 +14°C° 0 mm 3 mps 766 mmHg 72%
    20:00 +13°C° 0 mm 3 mps 767 mmHg 76%
    21:00 +12°C° 0 mm 3 mps 767 mmHg 76%
    22:00 +12°C° 0 mm 2 mps 767 mmHg 77%
    23:00 +12°C° 0 mm 2 mps 767 mmHg 78%

    26 August, Monday

    Time Temperature Precipitation Wind Pressure Humidity
    00:00 +12°C° 0 mm 2 mps 767 mmHg 77%
    01:00 +10°C° 0 mm 2 mps 766 mmHg 77%
    02:00 +10°C° 0 mm 2 mps 766 mmHg 77%
    03:00 +10°C° 0 mm 2 mps 766 mmHg 76%
    04:00 +9°C° 0 mm 2 mps 766 mmHg 76%
    05:00 +9°C° 0 mm 2 mps 766 mmHg 76%
    06:00 +10°C° 0 mm 2 mps 767 mmHg 73%
    07:00 +10°C° 0 mm 3 mps 767 mmHg 70%
    08:00 +11°C° 0 mm 3 mps 767 mmHg 68%
    09:00 +13°C° 0 mm 3 mps 767 mmHg 61%
    10:00 +16°C° 0 mm 3 mps 767 mmHg 54%
    11:00 +18°C° 0 mm 3 mps 767 mmHg 47%
    12:00 +18°C° 0 mm 3 mps 766 mmHg 46%
    13:00 +19°C° 0 mm 3 mps 765 mmHg 45%
    14:00 +20°C° 0 mm 2 mps 764 mmHg 44%
    15:00 +19°C° 0 mm 2 mps 764 mmHg 48%
    16:00 +19°C° 0 mm 2 mps 764 mmHg 52%
    17:00 +18°C° 0 mm 2 mps 764 mmHg 56%
    18:00 +17°C° 0 mm 2 mps 765 mmHg 59%
    19:00 +16°C° 0 mm 3 mps 765 mmHg 61%
    20:00 +13°C° 0 mm 3 mps 765 mmHg 64%
    21:00 +13°C° 0 mm 3 mps 765 mmHg 63%
    22:00 +13°C° 0 mm 3 mps 765 mmHg 62%
    23:00 +12°C° 0 mm 3 mps 764 mmHg 61%

    27 August, Tuesday

    Time Temperature Precipitation Wind Pressure Humidity
    00:00 +12°C° 0 mm 4 mps 764 mmHg 59%
    01:00 +12°C° 0 mm 4 mps 764 mmHg 58%
    02:00 +11°C° 0 mm 4 mps 763 mmHg 57%
    03:00 +11°C° 0 mm 4 mps 763 mmHg 57%
    04:00 +11°C° 0 mm 4 mps 763 mmHg 56%
    05:00 +10°C° 0 mm 5 mps 762 mmHg 56%
    06:00 +10°C° 0 mm 5 mps 762 mmHg 57%
    07:00 +12°C° 0 mm 5 mps 762 mmHg 58%
    08:00 +12°C° 0 mm 5 mps 762 mmHg 59%
    09:00 +14°C° 0 mm 5 mps 762 mmHg 57%
    10:00 +16°C° 0 mm 5 mps 761 mmHg 56%
    11:00 +19°C° 0 mm 5 mps 761 mmHg 54%
    12:00 +20°C° 0 mm 4 mps 760 mmHg 54%
    13:00 +21°C° 0 mm 4 mps 759 mmHg 54%
    14:00 +22°C° 0 mm 3 mps 758 mmHg 54%
    15:00 +22°C° 0 mm 3 mps 757 mmHg 57%
    16:00 +23°C° 0 mm 2 mps 757 mmHg 60%
    17:00 +23°C° 0 mm 2 mps 757 mmHg 63%
    18:00 +20°C° 0 mm 2 mps 757 mmHg 66%
    19:00 +19°C° 0 mm 2 mps 757 mmHg 70%
    20:00 +18°C° 0 mm 3 mps 757 mmHg 73%
    21:00 +17°C° 0 mm 3 mps 757 mmHg 73%
    22:00 +17°C° 0 mm 3 mps 756 mmHg 72%
    23:00 +16°C° 0 mm 3 mps 756 mmHg 72%
    Show more